Location: Bailleul
(50.3375°N, 2.8513°E)
Time: 14:52:43
(UTC+00:00)

Cosmos 1503 Rocket - Pass Details

Date: 16 June 2021
Orbit: 752 x 791 km, 74.0° (Epoch: 29 July)

Event Time Altitude Azimuth Distance (km) Brightness Sun altitude
Rises 23:08:30 0° 334° (NNW) 3,300 8.8 -15.7°
Reaches altitude 10° 23:10:54 10° 332° (NNW) 2,368 7.7 -15.8°
Maximum altitude 23:16:16 70° 250° (WSW) 842 4.1 -15.9°
Enters shadow 23:19:19 26° 172° (S) 1,514 4.9 -16.0°
